Flag for Micronesia Weather past 2 weeks in Colonia, Yap, Micronesia

Now
79 °F

Overcast.


Feels Like: 83 °F
Forecast: 78 / 86 °F
Wind: 3 mph from North

Location: Yap Island

Current Time: Mar 3, 2015 at 1:13:29 AM

Latest Report: Mar 3, 2015 at 12:57 AM


Visibility: 12 mi

Pressure: 29.81 "Hg

Humidity: 89%

Dew point: 75 °F

Location of ColoniaLocation

Historic Weather in Colonia — Graph

°F

Colonia temperature yesterday

Maximum temperature yesterday: 85 °F (at 11:50 AM)
Minimum temperature yesterday: 78 °F (at 4:51 AM)
Average temperature yesterday: 81 °F

Past Weeks' High & Low Weather Summary

 TemperatureHumidityPressure
High87 °F (Feb 18, 12:51 PM)97% (Feb 23, 11:55 AM)29.96 "Hg (Feb 23, 11:55 AM)
Low72 °F (Feb 23, 9:50 AM)58% (Feb 20, 11:51 AM)29.72 "Hg (Mar 2, 3:50 PM)
Average80 °F79%29.84 "Hg
* Reported Feb 15 11:50 PM — Mar 2 11:57 PM, Colonia, Weather by CustomWeather, © 2015

Note: Actual official high and low records may vary slightly from our data, if they occured in-between our weather recording intervals... More about our weather records

Advertising

Colonia weather history for previous 24 hours

 ConditionsComfort  
Time TempWeatherWind HumidityBarometerVisibility
11:57 PM
Mon, Mar 2
80 °FOvercast.6 mph86%29.83 "Hg12 mi
10:55 PM79 °FMostly cloudy.7 mph86%29.82 "Hg12 mi
9:54 PM79 °FMostly cloudy.8 mph84%29.80 "Hg12 mi
8:50 PM79 °FMostly cloudy.9 mph84%29.78 "Hg12 mi
7:53 PM80 °FCloudy.12 mph80%29.77 "Hg12 mi
6:51 PM80 °FCloudy.15 mph80%29.75 "Hg12 mi
5:50 PM82 °FCloudy.14 mph78%29.73 "Hg12 mi
4:52 PM84 °FCloudy.16 mph75%29.73 "Hg12 mi
3:50 PM85 °FCloudy.15 mph75%29.72 "Hg12 mi
2:52 PM85 °FCloudy.17 mph71%29.74 "Hg12 mi
1:52 PM80 °FSprinkles. Cloudy.15 mph82%29.76 "Hg10 mi
12:53 PM85 °FBroken clouds.16 mph73%29.78 "Hg12 mi
11:50 AM85 °FBroken clouds.15 mph72%29.80 "Hg12 mi
10:50 AM84 °FBroken clouds.14 mph77%29.81 "Hg12 mi
9:53 AM83 °FBroken clouds.12 mph78%29.82 "Hg12 mi
8:52 AM83 °FBroken clouds.13 mph78%29.82 "Hg12 mi
7:50 AM81 °FPartly cloudy.12 mph82%29.80 "Hg12 mi
6:50 AM80 °FOvercast.10 mph85%29.78 "Hg12 mi
5:51 AM80 °FOvercast.12 mph87%29.76 "Hg12 mi
4:51 AM78 °FPartly cloudy.6 mph86%29.75 "Hg12 mi
3:51 AM79 °FPartly cloudy.9 mph84%29.75 "Hg12 mi
2:50 AM79 °FMostly cloudy.12 mph87%29.78 "Hg12 mi
1:50 AM80 °FPartly cloudy.9 mph86%29.79 "Hg12 mi
Weather by CustomWeather, © 2015

See weather overviewHow to use our weather pages